FENGYUN 1C DEB, 30315

Orbit data source: Space-Track

FENGYUN 1C DEB, 30315 is space debris in SSO originally from a launch on Mon, 10 May 1999 UTC launched from the Taiyaun Space Center, China (TSC). Fengyun 1C debris stems from the Chinese weather satellite Fengyun-1C, which was intentionally destroyed by a Chinese anti-satellite missile in 2007. This event dramatically increased the amount of space debris, with thousands of trackable fragments posing hazards to satellites and human spaceflight. The Fengyun 1C debris cloud has become a focal point in discussions about space sustainability and the need for international regulations to prevent the creation of new debris.

Loading next visibility...
Identifier
30315, 1999-025AAC
Orbit
SSO
Country
Flag of CNCN / PRC
Related business
Manufacturer
Unknown
Mission
Spacecraft
Bus & Motor
Unknown
Mass
Unknown
Launch date (UTC)
1999-05-10 (27 years ago)
Launch vehicle
Unknown
Launch site
Taiyaun Space Center, China (TSC)
Object type
Payload
Rocket body
Debris
Shape & HBR
Unknown shape, 0.1 m
Radar Cross Section
Medium (>0.1 m² and <1 m²)

Expand to show TLE details & history
Last TLE update: 11 hours ago

TLE from 11 hours ago
0 FENGYUN 1C DEB
1 30315U 99025AAC 26151.00821953  .00000582  00000-0  29590-3 0  9993
2 30315  98.5970 160.5750 0034123 228.4033 157.5538 14.19301293  1087
Epoch: 2026-05-31T00:11Z
TLE epoch observation values (Epoch: 2026-05-31T00:11:50.167Z)
Latitude
25.82374°
Longitude
-95.07354°
Altitude
853.593 km
Speed
7.416 km/s
True Right ascension
10h 25m 36s
True Declination
25° 41' 27"
Sunlit
Object was in daylight at epoch
Visualization orbit readout
Latitude
Unknown
Longitude
Unknown
Altitude
Unknown
Speed
Unknown
Apparent Right ascension
Unknown
Apparent Declination
Unknown
Sunlit
N/A
Visualization observer readout
Local Sidereal Time
20:33:03
Azimuth
Unknown
Elevation
Unknown
Doppler factor
Unknown
Orbital elements
Apogee altitude
849.45 km
Perigee altitude
800.292 km
Semi-major axis
7,203.008 km
Eccentricity
0.00341
Inclination
98.597°
RAAN
160.575°
Arg. of periapsis
228.4033°
True anomaly
157.70251°
Mean anomaly
157.5538°
Eccentric anomaly
157.62821°
Mean motion
3.55036 °/min
Orbital period
101.4 mins
BSTAR
0.0002959
Loading maneuver chart data...
Computing Atmospheric mass density...
Loading historical data...
Loading historical data...
Loading historical data...
Loading historical data...
Loading historical data...
Loading historical data...
Loading historical data...

Documentation

Showing up to 5 results
|